Regional Weather Roundup
Issued by NWS Newport/Morehead, NC

Current Version | Previous Version | Text Only | Print | Product List | Glossary Off
Versions: 1 2 3 4 5 6 7 8 9 10 11 12 13 14 15 16 17 18 19 20 21 22 23 24 25 26 27 28 29 30 31 32 33 34 35 36 37 38 39 40 41 42 43 44 45 46 47 48 49 50
000 ASUS42 KMHX 251413 RWRMHX WEATHER ROUNDUP FOR EASTERN NORTH CAROLINA NATIONAL WEATHER SERVICE NEWPORT/MOREHEAD CITY NC 1000 AM EDT TUE APR 25 2017 NOTE: "FAIR" INDICATES FEW OR NO CLOUDS BELOW 12,000 FEET WITH NO SIGNIFICANT WEATHER AND/OR OBSTRUCTIONS TO VISIBILITY NCZ015>017-031-032-045>047-102-103-251500- NORTH COAST CITY SKY/WX TMP DP RH WIND PRES REMARKS EDENTON MOSUNNY 69 63 80 S9 29.64S ELIZABETH CITY MOSUNNY 68 63 84 VRB7 29.63F KITTY HAWK CLOUDY 68 60 76 CALM 29.65S MANTEO PTSUNNY 69 60 75 SW7 29.66S $$ NCZ045>047-081-094-103-104-251500- CENTRAL COAST CITY SKY/WX TMP DP RH WIND PRES REMARKS FRISCO SUNNY 75 64 68 CALM 29.63F HAZE $$ NCZ095-097-098-100-101-251500- SOUTHERN COAST CITY SKY/WX TMP DP RH WIND PRES REMARKS BEAUFORT LGT RAIN 69 66 90 NW3 29.63R CEDAR ISLAND NOT AVBL JACKSONVILLE CLOUDY 69 66 90 SW7 29.62R PINEY ISLAND PTSUNNY N/A N/A N/A NW7 29.63R WILMINGTON MOSUNNY 67 62 84 W9 29.63S $$ NCZ011>013-027>030-043-044-078>080-089-090>093-098-251500- COASTAL PLAIN CITY SKY/WX TMP DP RH WIND PRES REMARKS AHOSKIE N/A 65 61 86 SE7 29.61R CLINTON CLOUDY 64 64 100 CALM 29.63R ELIZABETHTOWN PTSUNNY 65 64 96 SE3 29.63S GOLDSBORO MOSUNNY 66 65 97 CALM 29.61R GREENVILLE PTSUNNY 68 63 83 W6 29.66R HAVELOCK PTSUNNY 69 63 81 W5 29.63R KENANSVILLE CLOUDY 66 61 82 CALM 29.62S KINSTON PTSUNNY 66 61 82 CALM 29.63R NEW BERN PTSUNNY 66 62 87 CALM 29.64R RICHLANDS CLOUDY 65 63 93 N3 29.63R ROCKY MOUNT MOSUNNY 66 62 87 VRB5 29.62R WASHINGTON PTSUNNY 67 60 79 CALM 29.63R WHITEVILLE CLOUDY 60 59 96 SW6 29.64R $$ AMZ130-135-150-152-154-156-158-170-250-252-270-ANZ085-086-088-633-658-670-251500- MARINE OBSERVATIONS STATION/POSITION TIME TEMP WIND PRES WAVE SWELL AIR SEA DIR/SP/G HT/PER HT/PER (UTC) (F) (DEG/KT/KT) (MB) (FT/S) (FT/S) CHESAPEAKE LIGHT NOT AVBL 64 E VA BEACH 1350 58 54 120/ 4/ 8 1005.5 16/10 16/10 DUCK 1342 66 60 170/ 11/ 14 1003.5 2 E DUCK 1400 59 N/A 10/11 7/11 OREGON INLET 1348 170/ 5/ 6 N/A 13E OREGON INLT 1348 58 N/A 11/11 11/11 HATTERAS CG 1342 73 67 200/ 5/ 7 1003.1 DIAMOND BUOY 1350 74 78 150/ 14/ 17 1003.2 14/11 13/11 CAPE LOOKOUT 1400 68 20/ 2/ 2 1002.9 BEAUFORT LAB 1342 69 65 40/ 1/ 2 1002.2 30 SE NEW RVR IN 1308 69 270/ 12/ 17 1002.8 30 SE NEW RVR IN 1343 71 N/A 8/11 5/11 27 SE WRIGHTSVLE 1308 68 72 230/ 17/ 25 1002.2 5 SE WRIGHTSVLE 1308 64 69 240/ 16/ 21 1002.8 225 S CAPE HAT 1350 73 75 200/ 16/ 19 1006.5 9/10 7/10 41 SE CHARLESTON 1350 65 72 280/ 21/ 27 1005.3 7/10 5/10 $$

USA.gov is the U.S. government's official web portal to all federal, state and local government web resources and services.